Regional Weather Roundup
Issued by NWS

Home | Current Version | Previous Version | Text Only | Print | Product List | Glossary On
Versions: 1 2 3 4 5 6 7 8 9 10 11 12 13 14 15 16 17 18 19 20 21 22 23 24 25 26 27 28 29 30 31 32 33 34 35 36 37 38 39 40 41 42 43 44 45 46 47 48 49 50
000
ASUS43 KMPX 270010
RWRMN
WEATHER ROUNDUP FOR MINNESOTA
NATIONAL WEATHER SERVICE TWIN CITIES/CHANHASSEN MN
600 PM CST MON JAN 26 2015


NOTE: "FAIR" INDICATES FEW OR NO CLOUDS BELOW 12,000 FEET WITH NO
SIGNIFICANT WEATHER AND/OR OBSTRUCTIONS TO VISIBILITY. N/A MEANS
CURRENT SKY AND/OR WEATHER CONDITIONS ARE NOT AVAILABLE.

MNZ060>063-068>070-270100-
   Twin Cities Metro

CITY           SKY/WX    TMP DP  RH WIND       PRES   REMARKS
TWIN CITIES    CLOUDY    40  31  70 NW15      29.84R
6HR MIN TEMP:  40; 6HR MAX TEMP:  45;

ST PAUL        CLOUDY    40  33  76 NW13      29.84R
CRYSTAL        CLOUDY    40  31  70 NW9       29.83R
BLAINE         CLOUDY    43  32  65 NW12      29.83R
LAKEVILLE      CLOUDY    37  32  81 W9        29.83R
EDEN PRAIRIE   CLOUDY    40  31  70 NW10      29.83R
6HR MIN TEMP:  40; 6HR MAX TEMP:  45;

SOUTH ST PAUL  CLOUDY    41  32  71 NW7G16    29.82R
LAKE ELMO      CLOUDY    39  32  75 NW8       29.83R
$$
MNZ001>005-007-008-013>017-022>024-027-028-270100-
   Northwest Minnesota

CITY           SKY/WX    TMP DP  RH WIND       PRES   REMARKS
BEMIDJI        CLOUDY    30  26  83 NW14      29.90R WCI  20
HALLOCK        CLOUDY    28  25  86 N10       29.95S WCI  19
ROSEAU         CLOUDY    28  21  74 NW6       29.93R WCI  22
WARROAD        CLOUDY    27  21  80 N6        29.93R WCI  20
THIEF RVR FALL CLOUDY    28  25  86 N7        29.94S WCI  21
CROOKSTON      CLOUDY    28  25  86 N14       29.97S WCI  17
FOSSTON        CLOUDY    27  25  93 N13       29.93R WCI  16
DETROIT LAKES  CLOUDY    30  28  93 N14       29.94R WCI  20
MOORHEAD       MOCLDY    30  30 100 N10       29.97R WCI  21
PARK RAPIDS    CLOUDY    32  26  78 N16G23    29.89R WCI  21
MAHNOMEN       CLOUDY    29  27  90 NW9       29.92S WCI  21
$$
MNZ006-009>011-018-025>026-270100-
   North Central Minnesota

CITY           SKY/WX    TMP DP  RH WIND       PRES   REMARKS
BAUDETTE       CLOUDY    27  21  78 N12       29.89R WCI  17
FLAG ISLAND    CLOUDY    25  21  86 NW13      29.91R WCI  13
INTL FALLS     CLOUDY    27  22  81 NW8       29.87R WCI  19
6HR MIN TEMP:  27; 6HR MAX TEMP:  30;

WASKISH        CLOUDY    28  25  86 CALM      29.90R
BIG FORK       CLOUDY    30  25  80 NW5       29.87R WCI  25
LONGVILLE      CLOUDY    34  28  80 NW6       29.86R WCI  29
GRAND RAPIDS   CLOUDY    30  27  86 NW13      29.84R WCI  20
CRANE LAKE     CLOUDY    25  21  86 N6        29.88R WCI  18
ORR            CLOUDY    27  21  80 CALM      29.83R
COOK           CLOUDY    27  25  93 NW7       29.85R WCI  19
WALKER         CLOUDY    31  26  80 NW7       29.88R WCI  24
$$
MNZ012-019>021-037-270100-
   Northeast Minnesota

CITY           SKY/WX    TMP DP  RH WIND       PRES   REMARKS
DULUTH         CLOUDY    31  26  82 N9        29.80R WCI  23
6HR MIN TEMP:  27; 6HR MAX TEMP:  31; 6HR PCP:  0.01;

ELY            CLOUDY    25  21  86 N7        29.83R WCI  17
HIBBING        CLOUDY    30  24  78 N10       29.83R WCI  21
EVELETH        CLOUDY    30  27  86 N6        29.84R WCI  24
DULUTH HARBOR  CLOUDY    30  27  86 CALM      29.85R
TWO HARBORS    CLOUDY    28  25  86 CALM      29.80R HAZE
SILVER BAY     CLOUDY    27  25  93 CALM      29.81R FOG
GRAND MARAIS     N/A     26  23  88 N3        29.86R
G MARAIS ARPRT LGT SNOW  19  16  86 N3        29.80R
$$
MNZ029>031-032-039>041-046>048-054>057-064-270100-
   West Central Minnesota

CITY           SKY/WX    TMP DP  RH WIND       PRES   REMARKS
FERGUS FALLS   CLOUDY    32  27  80 N14G22    29.97R WCI  22
WHEATON        PTCLDY    32  30  93 N8        29.98R WCI  25
MORRIS         PTCLDY    36  30  80 N14       29.92R
ALEXANDRIA     CLOUDY    33  27  78 N14       29.90R WCI  23
ELBOW LAKE     CLOUDY    32  29  89 N17G25    29.94R WCI  21
WADENA         CLOUDY    30  27  86 NW14      29.90R WCI  20
GLENWOOD       CLOUDY    36  28  75 NW18G28   29.90R
APPLETON       MOCLDY    39  34  81 NW13      29.93R
BENSON         MOCLDY    36  30  80 N13       29.92R
ORTONVILLE     PTCLDY    37  32  81 NW9       29.95R
MADISON        PTCLDY    39  36  87 NW8       29.94R
WILLMAR        FAIR      36  30  80 NW15      29.91R
$$
MNZ033>034-036-042>043-049>051-058-059-270100-
   Central Minnesota

CITY           SKY/WX    TMP DP  RH WIND       PRES   REMARKS
ST CLOUD       CLOUDY    38  29  70 NW9       29.85R
6HR MIN TEMP:  38; 6HR MAX TEMP:  43;

SAUK CENTRE    CLOUDY    33  28  82 NW16G24   29.89R WCI  23
PAYNESVILLE    CLOUDY    33  29  85 W13G22    29.90R WCI  23
AITKIN         CLOUDY    37  30  75 NW6       29.83R
PINE RIVER     CLOUDY    34  28  80 NW12G18   29.90R WCI  25
BRAINERD       CLOUDY    36  28  73 N16       29.85R
STAPLES        CLOUDY    34  28  80 NW12      29.88R WCI  25
LONG PRAIRIE   CLOUDY    32  28  86 W15G23    29.88R WCI  22
LITTLE FALLS   CLOUDY    36  28  75 NW6       29.86R
LITCHFIELD     CLOUDY    37  34  87 NW16      29.89R
BUFFALO        CLOUDY    38  30  72 NW7       29.87R
MAPLE LAKE     CLOUDY    39  32  76 NW10      29.87R
$$
MNZ037-044-045-052-053-270100-
   East Central Minnesota

CITY           SKY/WX    TMP DP  RH WIND       PRES   REMARKS
PRINCETON      CLOUDY    39  30  70 W9        29.85R
MORA           CLOUDY    36  28  75 NW16      29.84R
CAMBRIDGE      CLOUDY    41  28  60 NW8       29.83R
RUSH CITY      CLOUDY    38  29  70 NW6       29.83R
MOOSE LAKE     CLOUDY    34  30  86 NW8       29.81R WCI  27
HINCKLEY       CLOUDY    37  32  81 NW9       29.83R
CLOQUET        CLOUDY    32  28  86 N14G21    29.81R WCI  22
MCGREGOR       CLOUDY    34  30  86 NW14      29.84R WCI  24
$$
MNZ071>073-080-081-089-090-097-098-270100-
   Southwest Minnesota

CITY           SKY/WX    TMP DP  RH WIND       PRES   REMARKS
MONTEVIDEO     CLOUDY    37  34  87 N12       29.93R
GRANITE FALLS  CLOUDY    38  33  82 NW7       29.93R
CANBY          CLOUDY    38  33  81 NW12      29.95R
MARSHALL       CLOUDY    39  30  70 NW12      29.94R
REDWOOD FALLS  PTCLDY    39  32  76 NW10G21   29.90R
OLIVIA         PTCLDY    34  32  93 NW12G18   29.90R WCI  25
PIPESTONE      CLEAR     39  34  81 NW10      29.93R
WINDOM         CLOUDY    39  36  87 NW12      29.91R
WORTHINGTON    CLEAR     37  30  75 NW9       29.93R
JACKSON        CLOUDY    39  34  81 NW15      29.91R
TRACY          MOCLDY    39  34  82 NW12      29.92R
SLAYTON        PTCLDY    36  32  85 NW12      29.93R
$$
MNZ065>067-074>077-082>085-091>093-270100-
   South Central Minnesota

CITY           SKY/WX    TMP DP  RH WIND       PRES   REMARKS
MANKATO        CLOUDY    39  30  70 NW16      29.87R
NEW ULM        CLOUDY    37  32  81 NW13      29.89R
ST JAMES       MOCLDY    39  34  81 NW14      29.91R
FAIRMONT       CLOUDY    39  32  75 NW13      29.90R
GLENCOE        CLOUDY    39  32  75 NW17G23   29.87R
FARIBAULT      MOCLDY    39  34  81 W10G17    29.85R
OWATONNA       CLOUDY    37  32  81 NW13      29.85R
WASECA         CLOUDY    36  32  87 NW13      29.87R
ALBERT LEA     MOCLDY    39  36  87 NW12G18   29.85R
$$
MNZ078>079-086>088-094>096-270100-
   Southeast Minnesota

CITY           SKY/WX    TMP DP  RH WIND       PRES   REMARKS
ROCHESTER      CLOUDY    36  32  85 NW14      29.82R
6HR MIN TEMP:  36; 6HR MAX TEMP:  38;

RED WING       CLOUDY    39  32  75 W5        29.82R
STANTON        CLOUDY    39  33  78 NW8       29.82R
DODGE CENTER   CLOUDY    37  36  93 NW10      29.83R
WINONA         MIX PCPN  30  28  93 SE3       29.84R
AUSTIN         CLOUDY    37  34  87 NW12G20   29.84R
PRESTON        CLOUDY    36  32  86 NW10      29.82R
$$
ABBREVIATIONS USED IN REMARKS
   TC - TEMPERATURES IN CELSIUS
  WCI - WIND CHILL INDEX
   HX - HEAT INDEX
  VSB - VISIBILITY
$$



USA.gov is the U.S. government's official web portal to all federal, state and local government web resources and services.